Radioactive Concentration measured by Seawater Radiation Monitor near Fukushima Daiichi Nuclear Power Station
Date,Time,Cs137(Bq/L),Cs134(Bq/L),Total β(Bq/L)
2016/11/20,00:00,1.1,0.17,9.2
2016/11/20,00:10,1.1,0.17,ND
2016/11/20,00:20,1.1,0.17,ND
2016/11/20,00:30,1.1,0.16,ND
2016/11/20,00:40,1.1,0.16,ND
2016/11/20,00:50,1.2,0.12,ND
2016/11/20,01:00,1.1,0.14,ND
2016/11/20,01:10,1.1,0.14,ND
2016/11/20,01:20,1.1,0.13,ND
2016/11/20,01:30,1.1,0.14,8.8
2016/11/20,01:40,1.0,0.14,10
2016/11/20,01:50,1.0,0.14,ND
2016/11/20,02:00,1.0,0.14,ND
2016/11/20,02:10,1.0,0.13,ND
2016/11/20,02:20,1.0,0.13,ND
2016/11/20,02:30,1.1,0.14,ND
2016/11/20,02:40,1.1,0.13,ND
2016/11/20,02:50,1.1,0.13,ND
2016/11/20,03:00,1.1,0.13,ND
2016/11/20,03:10,1.2,0.13,9.0
2016/11/20,03:20,1.2,0.11,ND
2016/11/20,03:30,1.2,0.10,ND
2016/11/20,03:40,1.1,0.14,ND
2016/11/20,03:50,1.2,0.12,ND
2016/11/20,04:00,1.0,0.15,ND
2016/11/20,04:10,1.1,0.15,ND
2016/11/20,04:20,1.2,0.11,ND
2016/11/20,04:30,1.1,0.11,ND
2016/11/20,04:40,1.1,0.11,ND
2016/11/20,04:50,0.98,0.14,ND
2016/11/20,05:00,0.95,0.14,ND
2016/11/20,05:10,0.92,0.15,ND
2016/11/20,05:20,0.92,0.14,ND
2016/11/20,05:30,0.94,0.13,ND
2016/11/20,05:40,0.96,0.13,ND
2016/11/20,05:50,1.0,0.12,ND
2016/11/20,06:00,1.0,0.12,ND
2016/11/20,06:10,1.2,0.079,ND
2016/11/20,06:20,1.2,0.074,ND
2016/11/20,06:30,1.2,0.085,ND
2016/11/20,06:40,1.1,0.12,ND
2016/11/20,06:50,1.1,0.11,ND
2016/11/20,07:00,1.0,0.11,ND
2016/11/20,07:10,1.0,0.11,ND
2016/11/20,07:20,0.97,0.12,ND
2016/11/20,07:30,0.95,0.12,ND
2016/11/20,07:40,0.93,0.13,ND
2016/11/20,07:50,0.90,0.14,ND
2016/11/20,08:00,0.90,0.15,ND
2016/11/20,08:10,0.87,0.16,ND
2016/11/20,08:20,1.0,0.12,ND
2016/11/20,08:30,1.0,0.11,ND
2016/11/20,08:40,1.0,0.11,ND
2016/11/20,08:50,1.0,0.099,ND
2016/11/20,09:00,0.99,0.11,ND
2016/11/20,09:10,0.97,0.13,ND
2016/11/20,09:20,1.0,0.11,ND
2016/11/20,09:30,1.1,0.098,ND
2016/11/20,09:40,1.1,0.10,ND
2016/11/20,09:50,0.96,0.15,ND
2016/11/20,10:00,0.98,0.13,ND
2016/11/20,10:10,0.96,0.14,ND
2016/11/20,10:20,0.98,0.13,ND
2016/11/20,10:30,0.94,0.14,ND
2016/11/20,10:40,0.93,0.14,9.9
2016/11/20,10:50,0.95,0.14,9.0
2016/11/20,11:00,0.95,0.15,ND
2016/11/20,11:10,0.98,0.13,ND
2016/11/20,11:20,0.97,0.14,ND
2016/11/20,11:30,0.98,0.13,ND
2016/11/20,11:40,0.99,0.13,ND
2016/11/20,11:50,0.98,0.14,ND
2016/11/20,12:00,0.98,0.15,9.2
2016/11/20,12:10,0.99,0.16,ND
2016/11/20,12:20,1.0,0.15,ND
2016/11/20,12:30,1.2,0.12,ND
2016/11/20,12:40,1.1,0.15,9.2
2016/11/20,12:50,1.3,0.10,9.3
2016/11/20,13:00,1.2,0.13,ND
2016/11/20,13:10,1.2,0.12,ND
2016/11/20,13:20,1.2,0.13,ND
2016/11/20,13:30,1.2,0.12,ND
2016/11/20,13:40,1.2,0.14,ND
2016/11/20,13:50,1.2,0.15,ND
2016/11/20,14:00,1.2,0.16,ND
2016/11/20,14:10,1.2,0.17,8.8
2016/11/20,14:20,1.2,0.17,10
2016/11/20,14:30,1.1,0.18,9.6
2016/11/20,14:40,1.1,0.18,9.3
2016/11/20,14:50,1.1,0.17,ND
2016/11/20,15:00,1.1,0.16,ND
2016/11/20,15:10,1.1,0.16,ND
2016/11/20,15:20,1.1,0.15,ND
2016/11/20,15:30,1.2,0.14,ND
2016/11/20,15:40,1.2,0.15,ND
2016/11/20,15:50,1.2,0.15,ND
2016/11/20,16:00,1.1,0.14,ND
2016/11/20,16:10,1.1,0.15,ND
2016/11/20,16:20,1.1,0.15,ND
2016/11/20,16:30,1.1,0.16,ND
2016/11/20,16:40,1.1,0.16,ND
2016/11/20,16:50,1.1,0.15,ND
2016/11/20,17:00,1.2,0.16,ND
2016/11/20,17:10,1.2,0.15,ND
2016/11/20,17:20,1.2,0.15,ND
2016/11/20,17:30,1.2,0.15,ND
2016/11/20,17:40,1.2,0.15,ND
2016/11/20,17:50,1.2,0.15,ND
2016/11/20,18:00,1.2,0.14,ND
2016/11/20,18:10,1.4,0.11,ND
2016/11/20,18:20,1.3,0.15,ND
2016/11/20,18:30,1.2,0.15,10
2016/11/20,18:40,1.2,0.15,11
2016/11/20,18:50,1.2,0.16,11
2016/11/20,19:00,1.4,0.12,11
2016/11/20,19:10,1.2,0.16,ND
2016/11/20,19:20,1.2,0.17,10
2016/11/20,19:30,1.2,0.17,10
2016/11/20,19:40,1.2,0.17,ND
2016/11/20,19:50,1.2,0.17,ND
2016/11/20,20:00,1.2,0.17,ND
2016/11/20,20:10,1.2,0.16,ND
2016/11/20,20:20,1.2,0.16,ND
2016/11/20,20:30,1.2,0.15,ND
2016/11/20,20:40,1.2,0.16,ND
2016/11/20,20:50,1.2,0.16,ND
2016/11/20,21:00,1.2,0.17,ND
2016/11/20,21:10,1.2,0.16,ND
2016/11/20,21:20,1.2,0.17,ND
2016/11/20,21:30,1.2,0.18,ND
2016/11/20,21:40,1.2,0.17,ND
2016/11/20,21:50,1.2,0.17,ND
2016/11/20,22:00,1.2,0.16,ND
2016/11/20,22:10,1.2,0.18,ND
2016/11/20,22:20,1.2,0.17,ND
2016/11/20,22:30,1.2,0.17,ND
2016/11/20,22:40,1.2,0.16,ND
2016/11/20,22:50,1.2,0.16,ND
2016/11/20,23:00,1.2,0.17,ND
2016/11/20,23:10,1.2,0.16,ND
2016/11/20,23:20,1.2,0.16,ND
2016/11/20,23:30,1.2,0.16,ND
2016/11/20,23:40,1.2,0.17,ND
2016/11/20,23:50,1.2,0.17,ND
